Previsão horária em Abram-Tyube

Hoje, 18 Maio, Terça-feira

Tempo Temperatura Precipitação Vento Pressão Humidade
00:00 +21°C° 0 mm 6 m/s 747 mmHg 64%
01:00 +21°C° 0.1 mm 7 m/s 747 mmHg 69%
02:00 +20°C° 0.1 mm 8 m/s 748 mmHg 74%
03:00 +18°C° 0 mm 9 m/s 748 mmHg 78%
04:00 +18°C° 0 mm 9 m/s 749 mmHg 79%
05:00 +18°C° 0 mm 8 m/s 749 mmHg 79%
06:00 +18°C° 0 mm 8 m/s 750 mmHg 79%
07:00 +20°C° 0 mm 8 m/s 750 mmHg 74%
08:00 +20°C° 0 mm 8 m/s 750 mmHg 70%
09:00 +21°C° 0 mm 9 m/s 751 mmHg 66%
10:00 +23°C° 0 mm 8 m/s 751 mmHg 60%
11:00 +24°C° 0 mm 7 m/s 751 mmHg 55%
12:00 +26°C° 0 mm 6 m/s 751 mmHg 50%
13:00 +27°C° 0 mm 6 m/s 751 mmHg 47%
14:00 +27°C° 0 mm 5 m/s 751 mmHg 45%
15:00 +28°C° 0 mm 5 m/s 751 mmHg 42%
16:00 +27°C° 0 mm 4 m/s 751 mmHg 44%
17:00 +27°C° 0 mm 4 m/s 751 mmHg 45%
18:00 +26°C° 0 mm 3 m/s 751 mmHg 46%
19:00 +25°C° 0 mm 3 m/s 752 mmHg 50%
20:00 +22°C° 0 mm 3 m/s 752 mmHg 54%
21:00 +21°C° 0 mm 3 m/s 752 mmHg 58%
22:00 +20°C° 0 mm 3 m/s 752 mmHg 60%
23:00 +19°C° 0 mm 3 m/s 752 mmHg 62%

Amanhã, 19 Maio, Quarta-feira

Tempo Temperatura Precipitação Vento Pressão Humidade
00:00 +18°C° 0 mm 2 m/s 751 mmHg 64%
01:00 +18°C° 0 mm 2 m/s 751 mmHg 66%
02:00 +18°C° 0 mm 2 m/s 751 mmHg 69%
03:00 +17°C° 0 mm 2 m/s 751 mmHg 71%
04:00 +18°C° 0 mm 2 m/s 751 mmHg 70%
05:00 +18°C° 0 mm 2 m/s 751 mmHg 70%
06:00 +18°C° 0 mm 2 m/s 751 mmHg 69%
07:00 +20°C° 0 mm 2 m/s 750 mmHg 61%
08:00 +23°C° 0 mm 2 m/s 750 mmHg 52%
09:00 +25°C° 0 mm 2 m/s 750 mmHg 44%
10:00 +27°C° 0 mm 2 m/s 749 mmHg 39%
11:00 +28°C° 0 mm 2 m/s 749 mmHg 35%
12:00 +30°C° 0 mm 2 m/s 749 mmHg 30%
13:00 +30°C° 0 mm 3 m/s 749 mmHg 30%
14:00 +30°C° 0 mm 5 m/s 750 mmHg 30%
15:00 +32°C° 0 mm 6 m/s 750 mmHg 31%
16:00 +27°C° 0.3 mm 7 m/s 751 mmHg 45%
17:00 +22°C° 0.3 mm 8 m/s 752 mmHg 60%
18:00 +17°C° 0.3 mm 9 m/s 754 mmHg 74%
19:00 +17°C° 0.6 mm 8 m/s 754 mmHg 75%
20:00 +16°C° 0.6 mm 6 m/s 755 mmHg 75%
21:00 +16°C° 0.6 mm 5 m/s 755 mmHg 76%
22:00 +17°C° 0.1 mm 4 m/s 755 mmHg 76%
23:00 +17°C° 0.1 mm 3 m/s 756 mmHg 77%

Depois de amanhã, 20 Maio, Quinta-feira

Tempo Temperatura Precipitação Vento Pressão Humidade
00:00 +17°C° 0.1 mm 3 m/s 756 mmHg 78%
01:00 +17°C° 0 mm 3 m/s 756 mmHg 80%
02:00 +16°C° 0 mm 2 m/s 756 mmHg 82%
03:00 +16°C° 0 mm 2 m/s 756 mmHg 83%
04:00 +16°C° 0 mm 2 m/s 756 mmHg 80%
05:00 +17°C° 0 mm 2 m/s 756 mmHg 76%
06:00 +18°C° 0 mm 1 m/s 757 mmHg 72%
07:00 +18°C° 0 mm 2 m/s 757 mmHg 63%
08:00 +20°C° 0 mm 2 m/s 757 mmHg 54%
09:00 +21°C° 0 mm 2 m/s 757 mmHg 44%
10:00 +22°C° 0 mm 3 m/s 756 mmHg 40%
11:00 +25°C° 0 mm 3 m/s 756 mmHg 36%
12:00 +26°C° 0 mm 4 m/s 755 mmHg 32%
13:00 +27°C° 0 mm 4 m/s 755 mmHg 32%
14:00 +28°C° 0 mm 4 m/s 755 mmHg 31%
15:00 +28°C° 0 mm 5 m/s 754 mmHg 30%
16:00 +28°C° 0 mm 5 m/s 754 mmHg 33%
17:00 +27°C° 0 mm 5 m/s 755 mmHg 35%
18:00 +26°C° 0 mm 5 m/s 755 mmHg 38%
19:00 +25°C° 0 mm 5 m/s 755 mmHg 40%
20:00 +22°C° 0 mm 4 m/s 755 mmHg 43%
21:00 +20°C° 0 mm 4 m/s 755 mmHg 45%
22:00 +19°C° 0 mm 4 m/s 755 mmHg 49%
23:00 +18°C° 0 mm 3 m/s 755 mmHg 53%

21 Maio, Sexta-feira

Tempo Temperatura Precipitação Vento Pressão Humidade
00:00 +17°C° 0 mm 3 m/s 754 mmHg 56%
01:00 +17°C° 0 mm 3 m/s 754 mmHg 58%
02:00 +17°C° 0 mm 3 m/s 754 mmHg 60%
03:00 +15°C° 0 mm 4 m/s 754 mmHg 62%
04:00 +17°C° 0 mm 4 m/s 754 mmHg 62%
05:00 +17°C° 0 mm 4 m/s 754 mmHg 61%
06:00 +17°C° 0 mm 5 m/s 754 mmHg 60%
07:00 +20°C° 0 mm 6 m/s 754 mmHg 54%
08:00 +23°C° 0 mm 7 m/s 754 mmHg 47%
09:00 +26°C° 0 mm 8 m/s 753 mmHg 41%
10:00 +28°C° 0 mm 9 m/s 753 mmHg 38%
11:00 +29°C° 0 mm 9 m/s 753 mmHg 35%
12:00 +32°C° 0 mm 9 m/s 752 mmHg 33%
13:00 +32°C° 0 mm 10 m/s 752 mmHg 33%
14:00 +32°C° 0 mm 10 m/s 752 mmHg 32%
15:00 +32°C° 0 mm 10 m/s 752 mmHg 32%
16:00 +31°C° 0 mm 9 m/s 752 mmHg 36%
17:00 +29°C° 0 mm 9 m/s 752 mmHg 39%
18:00 +27°C° 0 mm 8 m/s 752 mmHg 42%
19:00 +26°C° 0 mm 8 m/s 752 mmHg 44%
20:00 +23°C° 0 mm 7 m/s 752 mmHg 46%
21:00 +22°C° 0 mm 7 m/s 752 mmHg 49%
22:00 +21°C° 0 mm 6 m/s 751 mmHg 51%
23:00 +21°C° 0 mm 6 m/s 751 mmHg 52%

22 Maio, Sábado

Tempo Temperatura Precipitação Vento Pressão Humidade
00:00 +20°C° 0 mm 6 m/s 751 mmHg 54%
01:00 +20°C° 0 mm 6 m/s 751 mmHg 56%
02:00 +20°C° 0 mm 6 m/s 751 mmHg 57%
03:00 +20°C° 0 mm 6 m/s 750 mmHg 59%
04:00 +20°C° 0 mm 6 m/s 750 mmHg 59%
05:00 +20°C° 0 mm 6 m/s 750 mmHg 60%
06:00 +20°C° 0 mm 6 m/s 750 mmHg 60%
07:00 +23°C° 0 mm 6 m/s 750 mmHg 54%
08:00 +26°C° 0 mm 7 m/s 750 mmHg 49%
09:00 +28°C° 0 mm 8 m/s 749 mmHg 43%
10:00 +31°C° 0 mm 8 m/s 749 mmHg 40%
11:00 +33°C° 0 mm 9 m/s 749 mmHg 36%
12:00 +36°C° 0 mm 10 m/s 749 mmHg 33%
13:00 +36°C° 0 mm 10 m/s 748 mmHg 32%
14:00 +36°C° 0 mm 10 m/s 748 mmHg 30%
15:00 +36°C° 0 mm 11 m/s 748 mmHg 29%
16:00 +34°C° 0 mm 10 m/s 748 mmHg 32%
17:00 +32°C° 0 mm 10 m/s 748 mmHg 35%
18:00 +31°C° 0 mm 9 m/s 747 mmHg 38%
19:00 +28°C° 0 mm 8 m/s 748 mmHg 42%
20:00 +26°C° 0 mm 6 m/s 748 mmHg 46%
21:00 +23°C° 0 mm 4 m/s 749 mmHg 50%
22:00 +22°C° 0 mm 4 m/s 749 mmHg 53%
23:00 +22°C° 0 mm 3 m/s 749 mmHg 55%

23 Maio, Domingo

Tempo Temperatura Precipitação Vento Pressão Humidade
00:00 +21°C° 0 mm 3 m/s 749 mmHg 58%
01:00 +20°C° 0 mm 3 m/s 749 mmHg 60%
02:00 +20°C° 0 mm 3 m/s 748 mmHg 62%
03:00 +20°C° 0 mm 2 m/s 748 mmHg 64%
04:00 +20°C° 0 mm 2 m/s 748 mmHg 64%
05:00 +20°C° 0 mm 3 m/s 749 mmHg 64%
06:00 +21°C° 0 mm 3 m/s 749 mmHg 64%
07:00 +24°C° 0 mm 2 m/s 749 mmHg 57%
08:00 +26°C° 0 mm 2 m/s 750 mmHg 51%
09:00 +28°C° 0 mm 2 m/s 750 mmHg 45%
10:00 +30°C° 0 mm 2 m/s 750 mmHg 42%
11:00 +32°C° 0 mm 1 m/s 750 mmHg 40%
12:00 +33°C° 0 mm 1 m/s 750 mmHg 38%
13:00 +34°C° 0 mm 1 m/s 749 mmHg 35%
14:00 +35°C° 0 mm 1 m/s 749 mmHg 33%
15:00 +36°C° 0 mm 1 m/s 749 mmHg 31%
16:00 +36°C° 0 mm 2 m/s 749 mmHg 32%
17:00 +36°C° 0 mm 3 m/s 749 mmHg 34%
18:00 +36°C° 0 mm 3 m/s 749 mmHg 35%
19:00 +33°C° 0 mm 3 m/s 750 mmHg 36%
20:00 +29°C° 0 mm 4 m/s 750 mmHg 38%
21:00 +26°C° 0 mm 4 m/s 750 mmHg 39%
22:00 +25°C° 0 mm 3 m/s 750 mmHg 41%
23:00 +24°C° 0 mm 3 m/s 750 mmHg 43%
Mostrar mais

Necessitamos do seu Consentimento

A Meteoprog e os seus Fornecedores de Serviços podem armazenar e aceder a dados pessoais como cookies, identificadores do dispositivo ou outras tecnologias semelhantes existentes no seu dispositivo e processar estes dados para personalizar conteúdos e anúncios, assim como funcionalidades nas redes sociais e análise de tráfego.

  • Armazenar e/ou aceder a informações no seu dispositivo

    Os cookies, identificadores do dispositivo ou outras informações podem ser armazenados ou acedidos no seu dispositivo, para os fins acima indicados.

  • Anúncios e conteúdos personalizados, medição de anúncios e conteúdos, dados sobre o público-alvo e desenvolvimento de produtos

    Os anúncios e os conteúdos podem ser personalizados com base num perfil. Podem ser adicionados dados adicionais para uma maior personalização dos anúncios e dos conteúdos. A eficácia dos anúncios e dos conteúdos pode ser medida. Podem ser obtidas informações sobre o público que visualizou os anúncios e os conteúdos. Estes dados podem ser usados para desenvolver ou melhorar sistemas, softwares ou a experiência do utilizador.

Ao clicar em "Eu concordo”, permitirá o uso de cookies, identificadores do dispositivo e web beacons mencionados ou outras tecnologias semelhantes. As configurações do navegador do seu dispositivo podem ser alteradas.

Para certos fins, podem ser invocados interesses legítimos ao invés de consentimento. Pode ler mais informação sobre este assunto na nossa Política de Privacidade e Cookies.